Location: Newark
(12.4436°N, 0.6167°W)
Time: 15:55:23
(UTC+00:00)

Transit 2A - Pass Details

Date: 14 December 2019
Orbit: 601 x 957 km, 66.7° (Epoch: 17 January)

Event Time Altitude Azimuth Distance (km) Brightness Sun altitude
Rises 04:21:40 0° 185° (S) 3,354 9.5 -26.6°
Reaches altitude 10° 04:24:22 10° 177° (S) 2,362 8.8 -25.9°
Maximum altitude 04:29:20 38° 110° (ESE) 1,117 7.3 -24.8°
Drops below altitude 10° 04:33:51 10° 42° (NE) 2,145 8.6 -23.8°
Sets 04:36:11 0° 34° (NE) 3,010 9.3 -23.2°
